When you browse on this site, cookies collect data to enhance your experience and personalize the content and advertising you see.
Visit our Privacy Policy to learn more. By continuing to use the site, you agree to this use of cookies and data.
  • In Latvia
  • List of Countries
  • For 7 days
  • Water Temperature
  • Satellite Maps
  • Weather Map
  • Weather Widgets
  • user-avatar
    Login

    Hourly Weather Gold Coast

    Today, 20 April, Saturday

    Time Temperature Precipitation Wind Pressure Humidity
    00:00 +21°C° 1.5 mm 4 mps 762 mmHg 95%
    01:00 +21°C° 1.5 mm 4 mps 762 mmHg 95%
    02:00 +21°C° 1.1 mm 4 mps 762 mmHg 95%
    03:00 +21°C° 1.1 mm 4 mps 762 mmHg 95%
    04:00 +21°C° 1.1 mm 4 mps 762 mmHg 95%
    05:00 +21°C° 0.7 mm 4 mps 762 mmHg 94%
    06:00 +21°C° 0.7 mm 4 mps 762 mmHg 94%
    07:00 +21°C° 0.7 mm 4 mps 763 mmHg 93%
    08:00 +22°C° 0.7 mm 5 mps 763 mmHg 89%
    09:00 +23°C° 0.7 mm 5 mps 763 mmHg 85%
    10:00 +25°C° 0.7 mm 5 mps 763 mmHg 81%
    11:00 +25°C° 1.3 mm 5 mps 763 mmHg 83%
    12:00 +25°C° 1.3 mm 5 mps 762 mmHg 85%
    13:00 +25°C° 1.3 mm 5 mps 762 mmHg 87%
    14:00 +25°C° 0.8 mm 5 mps 762 mmHg 87%
    15:00 +23°C° 0.8 mm 5 mps 761 mmHg 88%
    16:00 +23°C° 0.8 mm 5 mps 761 mmHg 89%
    17:00 +22°C° 0.5 mm 4 mps 762 mmHg 90%
    18:00 +22°C° 0.5 mm 4 mps 762 mmHg 92%
    19:00 +21°C° 0.5 mm 4 mps 762 mmHg 93%
    20:00 +21°C° 0.7 mm 4 mps 762 mmHg 93%
    21:00 +21°C° 0.7 mm 4 mps 763 mmHg 93%
    22:00 +21°C° 0.7 mm 4 mps 763 mmHg 94%
    23:00 +21°C° 0.7 mm 4 mps 763 mmHg 94%

    Tomorrow, 21 April, Sunday

    Time Temperature Precipitation Wind Pressure Humidity
    00:00 +21°C° 0.7 mm 4 mps 762 mmHg 94%
    01:00 +21°C° 0.7 mm 4 mps 762 mmHg 94%
    02:00 +21°C° 0.4 mm 4 mps 762 mmHg 94%
    03:00 +21°C° 0.4 mm 4 mps 762 mmHg 94%
    04:00 +21°C° 0.4 mm 4 mps 762 mmHg 94%
    05:00 +21°C° 0.1 mm 4 mps 762 mmHg 93%
    06:00 +21°C° 0.1 mm 4 mps 762 mmHg 92%
    07:00 +21°C° 0.1 mm 4 mps 762 mmHg 92%
    08:00 +22°C° 0 mm 4 mps 763 mmHg 82%
    09:00 +25°C° 0 mm 4 mps 763 mmHg 73%
    10:00 +27°C° 0 mm 4 mps 763 mmHg 63%
    11:00 +27°C° 0 mm 5 mps 762 mmHg 61%
    12:00 +27°C° 0 mm 5 mps 762 mmHg 59%
    13:00 +28°C° 0 mm 5 mps 761 mmHg 56%
    14:00 +27°C° 0 mm 5 mps 761 mmHg 61%
    15:00 +26°C° 0 mm 5 mps 761 mmHg 65%
    16:00 +26°C° 0 mm 4 mps 760 mmHg 70%
    17:00 +23°C° 0.2 mm 4 mps 761 mmHg 77%
    18:00 +22°C° 0.2 mm 4 mps 761 mmHg 84%
    19:00 +21°C° 0.2 mm 3 mps 762 mmHg 91%
    20:00 +21°C° 0.2 mm 3 mps 762 mmHg 92%
    21:00 +21°C° 0.2 mm 3 mps 762 mmHg 93%
    22:00 +21°C° 0.2 mm 3 mps 763 mmHg 93%
    23:00 +20°C° 0.1 mm 3 mps 762 mmHg 94%

    Day after tomorrow, 22 April, Monday

    Time Temperature Precipitation Wind Pressure Humidity
    00:00 +20°C° 0.1 mm 3 mps 762 mmHg 94%
    01:00 +20°C° 0.1 mm 3 mps 761 mmHg 94%
    02:00 +20°C° 0.1 mm 3 mps 761 mmHg 94%
    03:00 +20°C° 0.1 mm 3 mps 761 mmHg 94%
    04:00 +20°C° 0.1 mm 3 mps 761 mmHg 94%
    05:00 +20°C° 0.2 mm 3 mps 761 mmHg 94%
    06:00 +21°C° 0.2 mm 3 mps 761 mmHg 94%
    07:00 +21°C° 0.2 mm 3 mps 762 mmHg 94%
    08:00 +22°C° 0.2 mm 3 mps 762 mmHg 89%
    09:00 +24°C° 0.2 mm 3 mps 762 mmHg 85%
    10:00 +26°C° 0.2 mm 4 mps 762 mmHg 80%
    11:00 +26°C° 0.3 mm 4 mps 762 mmHg 78%
    12:00 +26°C° 0.3 mm 4 mps 761 mmHg 76%
    13:00 +27°C° 0.3 mm 4 mps 761 mmHg 73%
    14:00 +26°C° 0.3 mm 4 mps 761 mmHg 77%
    15:00 +25°C° 0.3 mm 4 mps 761 mmHg 80%
    16:00 +25°C° 0.3 mm 4 mps 761 mmHg 84%
    17:00 +23°C° 0.4 mm 4 mps 761 mmHg 87%
    18:00 +22°C° 0.4 mm 4 mps 762 mmHg 91%
    19:00 +21°C° 0.4 mm 4 mps 762 mmHg 94%
    20:00 +21°C° 0.1 mm 4 mps 763 mmHg 94%
    21:00 +21°C° 0.1 mm 4 mps 763 mmHg 94%
    22:00 +21°C° 0.1 mm 4 mps 763 mmHg 95%
    23:00 +21°C° 0.1 mm 3 mps 763 mmHg 94%

    23 April, Tuesday

    Time Temperature Precipitation Wind Pressure Humidity
    00:00 +21°C° 0.1 mm 3 mps 763 mmHg 94%
    01:00 +21°C° 0.1 mm 3 mps 762 mmHg 94%
    02:00 +20°C° 0.1 mm 3 mps 762 mmHg 93%
    03:00 +20°C° 0.1 mm 3 mps 762 mmHg 93%
    04:00 +20°C° 0.1 mm 3 mps 762 mmHg 93%
    05:00 +20°C° 0 mm 3 mps 762 mmHg 92%
    06:00 +20°C° 0 mm 3 mps 763 mmHg 91%
    07:00 +20°C° 0 mm 3 mps 763 mmHg 90%
    08:00 +22°C° 0 mm 4 mps 764 mmHg 81%
    09:00 +25°C° 0 mm 4 mps 764 mmHg 72%
    10:00 +26°C° 0 mm 4 mps 764 mmHg 63%
    11:00 +27°C° 0 mm 4 mps 763 mmHg 62%
    12:00 +27°C° 0 mm 4 mps 763 mmHg 60%
    13:00 +27°C° 0 mm 4 mps 762 mmHg 58%
    14:00 +27°C° 0 mm 4 mps 762 mmHg 63%
    15:00 +26°C° 0 mm 4 mps 762 mmHg 68%
    16:00 +25°C° 0 mm 4 mps 762 mmHg 74%
    17:00 +23°C° 0.1 mm 4 mps 762 mmHg 79%
    18:00 +22°C° 0.1 mm 4 mps 763 mmHg 84%
    19:00 +21°C° 0.1 mm 3 mps 763 mmHg 90%
    20:00 +21°C° 0.2 mm 3 mps 763 mmHg 90%
    21:00 +21°C° 0.2 mm 3 mps 763 mmHg 90%
    22:00 +21°C° 0.2 mm 3 mps 763 mmHg 90%
    23:00 +21°C° 1.3 mm 3 mps 763 mmHg 92%

    24 April, Wednesday

    Time Temperature Precipitation Wind Pressure Humidity
    00:00 +21°C° 1.3 mm 3 mps 763 mmHg 94%
    01:00 +20°C° 1.3 mm 3 mps 763 mmHg 95%
    02:00 +20°C° 1.3 mm 3 mps 762 mmHg 95%
    03:00 +20°C° 1.3 mm 2 mps 762 mmHg 95%
    04:00 +20°C° 1.3 mm 2 mps 762 mmHg 95%
    05:00 +20°C° 0.4 mm 2 mps 763 mmHg 95%
    06:00 +20°C° 0.4 mm 2 mps 763 mmHg 95%
    07:00 +21°C° 0.4 mm 2 mps 763 mmHg 94%
    08:00 +21°C° 0 mm 2 mps 763 mmHg 93%
    09:00 +21°C° 0 mm 2 mps 763 mmHg 91%
    10:00 +23°C° 0 mm 2 mps 763 mmHg 90%
    11:00 +24°C° 0 mm 3 mps 763 mmHg 80%
    12:00 +25°C° 0 mm 3 mps 762 mmHg 70%
    13:00 +27°C° 0 mm 3 mps 761 mmHg 61%
    14:00 +26°C° 0 mm 3 mps 761 mmHg 62%
    15:00 +26°C° 0 mm 3 mps 761 mmHg 63%
    16:00 +26°C° 0 mm 3 mps 761 mmHg 65%
    17:00 +24°C° 0 mm 3 mps 762 mmHg 71%
    18:00 +22°C° 0 mm 3 mps 762 mmHg 78%
    19:00 +20°C° 0 mm 2 mps 763 mmHg 85%
    20:00 +20°C° 0 mm 2 mps 763 mmHg 87%
    21:00 +20°C° 0 mm 2 mps 763 mmHg 89%
    22:00 +19°C° 0 mm 2 mps 763 mmHg 90%
    23:00 +19°C° 0 mm 2 mps 762 mmHg 91%

    25 April, Thursday

    Time Temperature Precipitation Wind Pressure Humidity
    00:00 +20°C° 0 mm 1 mps 762 mmHg 92%
    01:00 +20°C° 0 mm 1 mps 762 mmHg 93%
    02:00 +20°C° 0 mm 1 mps 762 mmHg 93%
    03:00 +20°C° 0 mm 1 mps 761 mmHg 94%
    04:00 +20°C° 0 mm 1 mps 761 mmHg 95%
    05:00 +19°C° 0 mm 2 mps 761 mmHg 94%
    06:00 +19°C° 0 mm 2 mps 761 mmHg 94%
    07:00 +19°C° 0 mm 2 mps 761 mmHg 94%
    08:00 +22°C° 0 mm 1 mps 761 mmHg 82%
    09:00 +25°C° 0 mm 1 mps 761 mmHg 70%
    10:00 +27°C° 0 mm 1 mps 761 mmHg 59%
    11:00 +28°C° 0 mm 1 mps 761 mmHg 56%
    12:00 +28°C° 0 mm 2 mps 760 mmHg 52%
    13:00 +29°C° 0 mm 2 mps 760 mmHg 49%
    14:00 +28°C° 0 mm 2 mps 759 mmHg 54%
    15:00 +27°C° 0 mm 2 mps 759 mmHg 58%
    16:00 +26°C° 0 mm 2 mps 759 mmHg 63%
    17:00 +25°C° 0 mm 2 mps 759 mmHg 70%
    18:00 +23°C° 0 mm 2 mps 760 mmHg 77%
    19:00 +21°C° 0 mm 1 mps 760 mmHg 85%
    20:00 +21°C° 0 mm 1 mps 760 mmHg 86%
    21:00 +21°C° 0 mm 1 mps 761 mmHg 86%
    22:00 +18°C° 0 mm 0 mps 761 mmHg 87%
    23:00 +20°C° 0 mm 1 mps 761 mmHg 88%
    Show more